TimeEDT,TemperatureF,Dew PointF,Humidity,Sea Level PressureIn,VisibilityMPH,Wind Direction,Wind SpeedMPH,Gust SpeedMPH,PrecipitationIn,Events,Conditions,WindDirDegrees,DateUTC
12:15 AM,32.0,28.4,87,29.84,10.0,WNW,5.8,-,N/A,,Overcast,300,2012-11-03 04:15:00
12:35 AM,32.0,28.4,87,29.85,10.0,WNW,6.9,16.1,N/A,,Overcast,300,2012-11-03 04:35:00
12:55 AM,32.0,30.2,93,29.85,10.0,WNW,5.8,-,N/A,,Overcast,300,2012-11-03 04:55:00
1:15 AM,32.0,30.2,93,29.85,10.0,WNW,3.5,-,N/A,,Overcast,290,2012-11-03 05:15:00
1:35 AM,32.0,30.2,93,29.85,10.0,NW,5.8,-,N/A,,Overcast,310,2012-11-03 05:35:00
1:55 AM,32.0,30.2,93,29.85,10.0,WNW,4.6,-,N/A,,Overcast,290,2012-11-03 05:55:00
2:15 AM,32.0,30.2,93,29.85,10.0,NW,5.8,-,N/A,,Overcast,320,2012-11-03 06:15:00
2:35 AM,32.0,30.2,93,29.85,10.0,WNW,5.8,-,N/A,,Overcast,300,2012-11-03 06:35:00
3:15 AM,32.0,30.2,93,29.86,10.0,WNW,6.9,-,N/A,,Overcast,300,2012-11-03 07:15:00
3:35 AM,32.0,30.2,93,29.85,10.0,WNW,9.2,-,N/A,,Overcast,300,2012-11-03 07:35:00
3:55 AM,32.0,30.2,93,29.86,10.0,NW,8.1,-,N/A,,Overcast,310,2012-11-03 07:55:00
4:15 AM,32.0,30.2,93,29.86,10.0,NW,9.2,-,N/A,,Overcast,310,2012-11-03 08:15:00
4:35 AM,32.0,30.2,93,29.86,10.0,WNW,4.6,16.1,N/A,,Overcast,290,2012-11-03 08:35:00
4:55 AM,32.0,30.2,93,29.87,10.0,NW,9.2,-,N/A,,Overcast,310,2012-11-03 08:55:00
5:15 AM,32.0,30.2,93,29.87,10.0,NW,9.2,-,N/A,,Overcast,310,2012-11-03 09:15:00
5:35 AM,32.0,30.2,93,29.88,10.0,WNW,8.1,16.1,N/A,,Overcast,300,2012-11-03 09:35:00
5:55 AM,32.0,30.2,93,29.88,10.0,NW,10.4,16.1,N/A,,Overcast,310,2012-11-03 09:55:00
6:15 AM,32.0,28.4,87,29.89,10.0,NW,8.1,-,N/A,,Overcast,310,2012-11-03 10:15:00
6:35 AM,32.0,28.4,87,29.89,10.0,WNW,11.5,17.3,N/A,,Overcast,300,2012-11-03 10:35:00
6:55 AM,32.0,28.4,87,29.90,7.0,NNW,11.5,19.6,N/A,,Overcast,330,2012-11-03 10:55:00
7:15 AM,32.0,28.4,87,29.91,5.0,NNW,3.5,-,N/A,Snow,Light Snow,330,2012-11-03 11:15:00
7:35 AM,32.0,28.4,87,29.92,10.0,NW,4.6,-,N/A,,Overcast,310,2012-11-03 11:35:00
7:55 AM,32.0,30.2,93,29.92,4.0,Calm,Calm,-,N/A,Snow,Light Snow,0,2012-11-03 11:55:00
8:15 AM,32.0,30.2,93,29.92,3.0,NW,8.1,-,N/A,Snow,Light Snow,310,2012-11-03 12:15:00
8:35 AM,32.0,30.2,93,29.93,10.0,NW,9.2,17.3,N/A,,Overcast,320,2012-11-03 12:35:00
8:55 AM,32.0,28.4,87,29.94,10.0,NW,6.9,-,N/A,,Overcast,320,2012-11-03 12:55:00
9:15 AM,32.0,30.2,93,29.94,4.0,WNW,8.1,16.1,N/A,Snow,Light Snow,300,2012-11-03 13:15:00
9:35 AM,32.0,30.2,93,29.94,3.0,WNW,5.8,-,N/A,Snow,Light Snow,290,2012-11-03 13:35:00
9:55 AM,32.0,30.2,93,29.95,1.8,NW,6.9,-,N/A,Snow,Light Snow,320,2012-11-03 13:55:00
10:15 AM,32.0,30.2,93,29.95,2.0,NW,4.6,-,N/A,Snow,Light Snow,320,2012-11-03 14:15:00
10:55 AM,32.0,30.2,93,29.96,5.0,NW,6.9,-,N/A,,Overcast,320,2012-11-03 14:55:00
11:15 AM,32.0,30.2,93,29.96,10.0,NW,8.1,19.6,N/A,,Overcast,320,2012-11-03 15:15:00
11:35 AM,32.0,28.4,87,29.96,10.0,NNW,10.4,20.7,N/A,,Overcast,330,2012-11-03 15:35:00
11:55 AM,32.0,28.4,87,29.96,10.0,NW,11.5,18.4,N/A,,Overcast,310,2012-11-03 15:55:00
12:15 PM,32.0,30.2,93,29.96,10.0,NNW,5.8,19.6,N/A,,Overcast,330,2012-11-03 16:15:00
12:35 PM,32.0,30.2,93,29.96,5.0,NW,8.1,-,N/A,,Overcast,310,2012-11-03 16:35:00
12:55 PM,32.0,30.2,93,29.96,10.0,WNW,10.4,17.3,N/A,,Overcast,290,2012-11-03 16:55:00
1:15 PM,32.0,30.2,93,29.96,10.0,WNW,8.1,-,N/A,,Overcast,290,2012-11-03 17:15:00
1:35 PM,32.0,30.2,93,29.96,10.0,WNW,9.2,16.1,N/A,,Overcast,290,2012-11-03 17:35:00
1:55 PM,32.0,32.0,100,29.97,1.0,WNW,8.1,19.6,N/A,Snow,Light Snow,300,2012-11-03 17:55:00
2:15 PM,32.0,30.2,93,29.97,10.0,WNW,9.2,-,N/A,,Overcast,300,2012-11-03 18:15:00
2:35 PM,32.0,30.2,93,29.97,10.0,WNW,8.1,16.1,N/A,,Overcast,300,2012-11-03 18:35:00
2:55 PM,32.0,30.2,93,29.97,1.8,WNW,6.9,-,N/A,Snow,Light Snow,290,2012-11-03 18:55:00
3:15 PM,32.0,30.2,93,29.97,1.5,NW,8.1,-,N/A,Snow,Light Snow,310,2012-11-03 19:15:00
3:35 PM,32.0,30.2,93,29.97,10.0,NW,8.1,-,N/A,,Overcast,310,2012-11-03 19:35:00
3:55 PM,32.0,30.2,93,29.97,10.0,WNW,4.6,-,N/A,,Overcast,290,2012-11-03 19:55:00
4:15 PM,32.0,30.2,93,29.97,5.0,WNW,6.9,-,N/A,Snow,Light Snow,300,2012-11-03 20:15:00
4:35 PM,32.0,30.2,93,29.98,10.0,WNW,5.8,-,N/A,,Overcast,290,2012-11-03 20:35:00
4:55 PM,32.0,30.2,93,29.99,10.0,WNW,8.1,-,N/A,,Overcast,290,2012-11-03 20:55:00
5:15 PM,32.0,30.2,93,29.99,10.0,WNW,9.2,-,N/A,,Overcast,300,2012-11-03 21:15:00
5:35 PM,32.0,30.2,93,29.99,10.0,West,6.9,-,N/A,,Overcast,280,2012-11-03 21:35:00
5:55 PM,32.0,30.2,93,30.00,10.0,WNW,5.8,-,N/A,,Overcast,300,2012-11-03 21:55:00
6:15 PM,32.0,30.2,93,30.00,7.0,NW,4.6,-,N/A,,Overcast,310,2012-11-03 22:15:00
6:35 PM,32.0,30.2,93,30.00,5.0,WNW,6.9,-,N/A,Snow,Light Snow,290,2012-11-03 22:35:00
6:55 PM,32.0,30.2,93,30.00,10.0,WNW,4.6,-,N/A,,Overcast,300,2012-11-03 22:55:00
7:15 PM,32.0,30.2,93,30.00,10.0,WNW,6.9,-,N/A,,Overcast,300,2012-11-03 23:15:00
7:35 PM,32.0,30.2,93,30.01,10.0,NW,5.8,-,N/A,,Overcast,310,2012-11-03 23:35:00
7:55 PM,32.0,30.2,93,30.00,10.0,WNW,5.8,-,N/A,,Overcast,300,2012-11-03 23:55:00
8:15 PM,32.0,30.2,93,30.00,10.0,Calm,Calm,-,N/A,,Overcast,0,2012-11-04 00:15:00
8:35 PM,32.0,30.2,93,30.00,5.0,NW,3.5,-,N/A,,Overcast,320,2012-11-04 00:35:00
8:55 PM,32.0,30.2,93,30.01,10.0,Calm,Calm,-,N/A,,Overcast,0,2012-11-04 00:55:00
9:15 PM,32.0,30.2,93,30.01,10.0,NNW,6.9,-,N/A,,Overcast,340,2012-11-04 01:15:00
9:35 PM,32.0,30.2,93,30.01,10.0,NNW,8.1,-,N/A,,Overcast,330,2012-11-04 01:35:00
9:55 PM,32.0,30.2,93,30.01,10.0,NW,5.8,-,N/A,,Overcast,320,2012-11-04 01:55:00
10:15 PM,32.0,30.2,93,30.02,10.0,NW,4.6,-,N/A,,Overcast,320,2012-11-04 02:15:00
10:35 PM,32.0,28.4,87,30.02,10.0,NNW,5.8,-,N/A,,Overcast,330,2012-11-04 02:35:00
10:55 PM,32.0,28.4,87,30.02,10.0,Calm,Calm,-,N/A,,Overcast,0,2012-11-04 02:55:00
11:15 PM,32.0,28.4,87,30.01,10.0,NW,6.9,-,N/A,,Overcast,320,2012-11-04 03:15:00
11:35 PM,32.0,28.4,87,30.02,10.0,NNW,3.5,-,N/A,,Overcast,340,2012-11-04 03:35:00
11:55 PM,30.2,28.4,93,30.01,10.0,NNW,5.8,-,N/A,,Overcast,340,2012-11-04 03:55:00